Christchurch, New Zealand

10:28 PM NZDT on December 18, 2017 (GMT +1300)
Christchurch International

Weather History for NZCH - April, 2014

Change the Weather History Date:

Tuesday, April 15, 2014

  Actual Average Record
Temperature  
Mean Temperature 60 °F -  
Max Temperature 64 °F 58 °F 73 °F (2013)
Min Temperature 55 °F 40 °F 35 °F (2004)
Degree Days  
Heating Degree Days 6    
Growing Degree Days 10 (Base 50)    
Moisture  
Dew Point 56 °F    
Average Humidity 91    
Maximum Humidity 100    
Minimum Humidity 77    
Precipitation  
Precipitation 0.00 in - - ()
Sea Level Pressure  
Sea Level Pressure 29.95 in    
Wind  
Wind Speed 13 mph ()    
Max Wind Speed 20 mph    
Max Gust Speed -    
Visibility 6.0 miles    
Events Fog , Rain    
Averages and records for this station are not official NWS values.
T = Trace of Precipitation, MM = Missing Value Source: Averaged Metar Reports

Daily Weather History Graph

Daily Weather History Graph

Search for Another Location

Airport or City:

Trip Planner

Search our weather history database for the weather conditions in past years. The results will help you decide how hot, cold, wet, or windy it might be!

Date:

Astronomy

Apr. 15, 2014 Rise Set
Actual Time 7:02 AM NZST 5:57 PM NZST
Civil Twilight 6:33 AM NZST 6:26 PM NZST
Nautical Twilight 6:00 AM NZST 6:59 PM NZST
Astronomical Twilight 5:26 AM NZST 7:32 PM NZST
Moon 5:48 PM NZST (4/15) 6:34 AM NZST (4/15)
Length of Visible Light 11h 52m
Length of Day
10h 54m
Full, 100% of the Moon is Illuminated
Apr 15
Full
Apr 15
Full
Apr 22
Last Quarter
Apr 29
New
May 7
First Quarter

Hourly Weather History & Observations

Time (NZST) Temp. Dew Point Humidity Pressure Visibility Wind Dir Wind Speed Gust Speed Precip Events Conditions
12:00 AM 55.4 °F 53.6 °F 94% 30.12 in 6.2 mi ENE 15.0 mph - N/A   Overcast
12:30 AM 55.4 °F 53.6 °F 94% 30.12 in 6.2 mi ENE 17.3 mph - N/A   Overcast
1:00 AM 55.4 °F 53.6 °F 94% 30.09 in 6.2 mi ENE 13.8 mph - N/A   Overcast
1:30 AM 57.2 °F 53.6 °F 88% 30.09 in 6.2 mi ENE 16.1 mph - N/A   Mostly Cloudy
2:00 AM 57.2 °F 53.6 °F 88% 30.09 in 6.2 mi ENE 15.0 mph - N/A   Overcast
2:30 AM 55.4 °F 53.6 °F 94% 30.09 in 6.2 mi ENE 15.0 mph - N/A Rain Light Rain
3:00 AM 57.2 °F 53.6 °F 88% 30.06 in 6.2 mi ENE 13.8 mph - N/A   Overcast
3:30 AM 55.4 °F 53.6 °F 94% 30.06 in 6.2 mi ENE 16.1 mph - N/A   Overcast
4:00 AM 55.4 °F 53.6 °F 94% 30.06 in 6.2 mi ENE 18.4 mph - N/A   Overcast
4:30 AM 55.4 °F 53.6 °F 94% 30.04 in 6.2 mi ENE 19.6 mph - N/A   Overcast
5:00 AM 55.4 °F 53.6 °F 94% 30.04 in 6.2 mi ENE 17.3 mph - N/A   Overcast
5:30 AM 55.4 °F 53.6 °F 94% 30.04 in 6.2 mi ENE 16.1 mph - N/A Rain Light Rain
6:00 AM 55.4 °F 53.6 °F 94% 30.01 in 6.2 mi ENE 12.7 mph - N/A   Overcast
6:30 AM 55.4 °F 55.4 °F 100% 30.01 in 6.2 mi ENE 13.8 mph - N/A   Overcast
7:00 AM 57.2 °F 55.4 °F 94% 30.01 in 6.2 mi ENE 13.8 mph - N/A   Overcast
7:30 AM 57.2 °F 55.4 °F 94% 30.01 in 6.2 mi ENE 13.8 mph - N/A   Overcast
8:00 AM 57.2 °F 55.4 °F 94% 30.01 in 6.2 mi East 13.8 mph - N/A   Overcast
8:30 AM 57.2 °F 55.4 °F 94% 30.01 in 6.2 mi ENE 16.1 mph - N/A   Overcast
9:00 AM 57.2 °F 55.4 °F 94% 30.01 in 6.2 mi ENE 16.1 mph - N/A   Overcast
9:30 AM 59.0 °F 55.4 °F 88% 30.01 in 6.2 mi ENE 15.0 mph - N/A   Overcast
10:00 AM 59.0 °F 55.4 °F 88% 30.01 in 6.2 mi ENE 17.3 mph - N/A   Mostly Cloudy
10:30 AM 59.0 °F 55.4 °F 88% 29.98 in 6.2 mi ENE 15.0 mph - N/A   Scattered Clouds
11:00 AM 59.0 °F 57.2 °F 94% 29.98 in 6.2 mi East 15.0 mph - N/A   Scattered Clouds
11:30 AM 60.8 °F 57.2 °F 88% 29.98 in 6.2 mi ENE 13.8 mph - N/A   Partly Cloudy
12:00 PM 60.8 °F 57.2 °F 88% 29.98 in 6.2 mi ENE 13.8 mph - N/A   Partly Cloudy
12:30 PM 60.8 °F 57.2 °F 88% 29.95 in 6.2 mi ENE 15.0 mph - N/A   Mostly Cloudy
1:00 PM 62.6 °F 57.2 °F 82% 29.95 in 6.2 mi East 12.7 mph - N/A   Partly Cloudy
1:30 PM 60.8 °F 57.2 °F 88% 29.92 in 6.2 mi ENE 13.8 mph - N/A   Unknown
2:00 PM 64.4 °F 57.2 °F 77% 29.89 in 6.2 mi East 17.3 mph - N/A   Unknown
2:30 PM 62.6 °F 55.4 °F 77% 29.89 in 6.2 mi East 13.8 mph - N/A   Unknown
3:00 PM 62.6 °F 57.2 °F 82% 29.89 in 6.2 mi ENE 12.7 mph - N/A   Unknown
3:30 PM 60.8 °F 57.2 °F 88% 29.86 in 6.2 mi East 13.8 mph - N/A   Unknown
4:00 PM 62.6 °F 57.2 °F 82% 29.86 in 6.2 mi ENE 13.8 mph - N/A   Unknown
4:30 PM 60.8 °F 57.2 °F 88% 29.86 in 6.2 mi East 11.5 mph - N/A   Unknown
5:00 PM 60.8 °F 57.2 °F 88% 29.86 in 6.2 mi ENE 11.5 mph - N/A   Unknown
5:30 PM 59.0 °F 57.2 °F 94% 29.86 in 6.2 mi ENE 12.7 mph - N/A Rain Light Rain
6:00 PM 59.0 °F 57.2 °F 94% 29.86 in 6.2 mi ENE 10.4 mph - N/A Rain Light Rain Showers
6:30 PM 59.0 °F 57.2 °F 94% 29.86 in 1.1 mi ENE 10.4 mph - N/A Fog , Rain Light Rain Showers
7:00 PM 59.0 °F 57.2 °F 94% 29.83 in 6.2 mi East 10.4 mph - N/A Rain Light Rain
7:30 PM 59.0 °F 57.2 °F 94% 29.83 in 6.2 mi ENE 8.1 mph - N/A Rain Light Rain
8:00 PM 59.0 °F 57.2 °F 94% 29.86 in 5.6 mi ENE 10.4 mph - N/A Rain Light Rain Showers
8:30 PM 59.0 °F 57.2 °F 94% 29.83 in 5.6 mi East 6.9 mph - N/A Rain Light Rain Showers
9:00 PM 59.0 °F 57.2 °F 94% 29.83 in 5.6 mi ENE 6.9 mph - N/A Rain Light Rain
9:30 PM 59.0 °F 57.2 °F 94% 29.83 in 6.2 mi East 9.2 mph - N/A Rain Light Rain
10:00 PM 59.0 °F 57.2 °F 94% 29.83 in 5.6 mi East 5.8 mph - N/A Rain Light Rain
10:30 PM 59.0 °F 57.2 °F 94% 29.83 in 6.2 mi East 5.8 mph - N/A Rain Light Rain
11:00 PM 57.2 °F 57.2 °F 100% 29.83 in 5.6 mi NE 4.6 mph - N/A   Unknown
11:30 PM 57.2 °F 57.2 °F 100% 29.80 in 5.6 mi NE 4.6 mph - N/A   Unknown